Overview Statistics Trail Chart Weather Telemetry Raw packets
 

This is the latest recevied weather packets stored in our database for station/object AB4BJ-10. If no packets are shown the sender has not sent any weather packets the latest 10 day(s).

<< 71 72 73 74 75 76 77 >>
Time Temp. Humidity Pressure Rain* Wind** Luminosity Snow
1788110184 29.44° C 75% 1017.7 hPa 0 mm - - -
1788110150 29.44° C 75% 1017.7 hPa 0 mm - - -
1788109849 29.44° C 72% 1017.7 hPa 0 mm - - -
1788109551 29.44° C 74% 1017.8 hPa 0 mm - - -
1788109248 28.89° C 77% 1018 hPa 0 mm - - -
1788108948 28.33° C 76% 1018 hPa 0 mm - - -
1788108648 28.33° C 77% 1018.1 hPa 0 mm - - -
1788107748 28.89° C 77% 1018.2 hPa 0 mm - - -
1788107674 28.89° C 76% 1018.2 hPa 0 mm - - -
1788107447 28.89° C 76% 1018.2 hPa 0 mm - - -
1788107147 28.89° C 77% 1018.2 hPa 0 mm - - -
1788106846 28.89° C 77% 1018.3 hPa 0 mm - - -
1788106547 28.89° C 77% 1018.3 hPa 0 mm - - -
1788106246 27.78° C 80% 1018.3 hPa 0 mm - - -
1788105945 27.78° C 80% 1018.3 hPa 0 mm - - -
1788105680 27.78° C 80% 1018.3 hPa 0 mm - - -
1788105645 27.78° C 80% 1018.3 hPa 0 mm - - -
1788105345 27.78° C 83% 1018.4 hPa 0 mm - - -
1788105046 27.22° C 83% 1018.4 hPa 0 mm - - -
1788104744 27.22° C 83% 1018.5 hPa 0 mm - - -
1788104444 27.22° C 83% 1018.5 hPa 0 mm - - -
1788104251 27.22° C 84% 1018.6 hPa 0 mm - - -
1788104144 27.22° C 84% 1018.6 hPa 0 mm - - -
1788103845 27.22° C 83% 1018.6 hPa 0 mm - - -
1788103592 26.67° C 85% 1018.6 hPa 0 mm - - -

* Rain latest hour (hover to see other rain measurements)
** Current wind speed in m/s (hover to see current wind gust speed)